Location: Unspecified
(35.6961°N, 0.0000°E)
Time: 22:00:01
(UTC+00:00)

Altair - Pass Details

Date: 25 May 2019
Orbit: 1501 x 1683 km, 47.2° (Epoch: 19 June)

Event Time Altitude Azimuth Distance (km) Brightness Sun altitude
Rises 08:40:53 0° 302° (WNW) 4,935 9.8 44.9°
Reaches altitude 10° 08:44:08 10° 305° (NW) 3,936 9.4 45.6°
Maximum altitude 08:54:14 68° 28° (NNE) 1,744 8.8 47.6°
Drops below altitude 10° 09:03:58 10° 111° (ESE) 3,809 10.5 49.6°
Sets 09:07:02 0° 114° (ESE) 4,768 10.7 50.2°
